Location: DARK SKY Beskydy - Park tmavé oblohy, www.darkskybeskydy.cz
(49.4926°N, 18.5016°E)
Time: 03:42:23
(UTC+01:00)

Envisat - Pass Details

Date: 06 December 2022
Orbit: 763 x 765 km, 98.2° (Epoch: 05 February)

Event Time Altitude Azimuth Distance (km) Brightness Sun altitude
Rises 16:26:30 0° 213° (SSW) 3,219 7.4 -6.3°
Reaches altitude 10° 16:29:41 10° 234° (SW) 2,299 7.2 -6.7°
Maximum altitude 16:32:48 16° 272° (W) 1,908 6.1 -7.2°
Drops below altitude 10° 16:35:55 10° 310° (NW) 2,311 5.8 -7.7°
Sets 16:39:09 0° 332° (NNW) 3,243 6.3 -8.1°
